Terminal Aerodrome Forecast
Issued by NWS Atlanta, GA

Home | Current Version | Previous Version | Text Only | Print | Product List | Glossary On
Versions: 1 2 3 4 5 6 7 8 9 10 11 12 13 14 15 16 17 18 19 20 21 22 23 24 25 26 27 28 29 30 31 32 33 34 35
000
FTUS42 KFFC 032329
TAFATL
TAF
KATL 032329Z 0400/0506 20004KT P6SM FEW080 BKN250
     FM040300 17003KT P6SM SCT250
     FM041500 17004KT P6SM FEW050
     FM041700 16006KT P6SM SCT050
     FM050200 13005KT P6SM SKC=

USA.gov is the U.S. government's official web portal to all federal, state and local government web resources and services.